Flag for Spain Weather past 2 weeks in Málaga, Spain

Now
79 °F

Clear.


Feels Like: 82 °F
Forecast: 76 / 98 °F
Wind: No wind

Location: Malaga / Aeropuerto

Current Time: Jul 28, 2015 at 3:51:20 AM

Latest Report: Jul 28, 2015 at 3:30 AM


Visibility: 10 mi

Pressure: 29.83 "Hg

Humidity: 84%

Dew point: 73 °F

Location of MálagaLocation

Historic Weather in Málaga — Graph

°F

Málaga temperature yesterday

Maximum temperature yesterday: 90 °F (at 5:00 PM)
Minimum temperature yesterday: 77 °F (at 5:00 AM)
Average temperature yesterday: 84 °F

Past Weeks' High & Low Weather Summary

 TemperatureHumidityPressure
High108 °F (Jul 24, 5:00 PM)100% (Jul 13, 8:30 PM)30.09 "Hg (Jul 13, 8:30 PM)
Low70 °F (Jul 14, 7:00 AM)10% (Jul 24, 5:00 PM)29.80 "Hg (Jul 24, 5:00 PM)
Average84 °F65%29.96 "Hg
* Reported Jul 13 2:00 AM — Jul 28 2:30 AM, Málaga, Weather by CustomWeather, © 2015

Note: Actual official high and low records may vary slightly from our data, if they occured in-between our weather recording intervals... More about our weather records

Advertising

Málaga weather history for previous 24 hours

 ConditionsComfort  
Time TempWeatherWind HumidityBarometerVisibility
2:30 AM
Tue, Jul 28
82 °FClear.9 mph55%29.83 "Hg10 mi
2:00 AM82 °FClear.6 mph58%29.86 "Hg10 mi
1:30 AM82 °FClear.7 mph58%29.86 "Hg10 mi
1:00 AM84 °FClear.1 mph55%29.86 "Hg10 mi
12:30 AM84 °FClear.8 mph55%29.86 "Hg10 mi
12:00 AM82 °FClear.3 mph62%29.86 "Hg10 mi
11:30 PM
Mon, Jul 27
84 °FClear.1 mph62%29.86 "Hg10 mi
11:00 PM84 °FClear.1 mph66%29.86 "Hg10 mi
10:30 PM84 °FClear.1 mph66%29.86 "Hg10 mi
10:00 PM86 °FSunny.1 mph55%29.83 "Hg10 mi
9:30 PM88 °FSunny.1 mph52%29.83 "Hg10 mi
9:00 PM90 °FSunny.1 mph46%29.83 "Hg10 mi
8:30 PM90 °FPassing clouds.7 mph49%29.83 "HgN/A
8:00 PM90 °FPassing clouds.9 mph46%29.83 "HgN/A
7:30 PM90 °FPassing clouds.9 mph46%29.83 "HgN/A
7:00 PM90 °FPassing clouds.10 mph52%29.83 "HgN/A
6:30 PM90 °FPassing clouds.9 mph52%29.83 "HgN/A
6:00 PM90 °FPassing clouds.9 mph52%29.83 "HgN/A
5:30 PM90 °FPassing clouds.12 mph52%29.86 "HgN/A
5:00 PM90 °FSunny.14 mph52%29.86 "Hg10 mi
4:30 PM88 °FPassing clouds.13 mph49%29.86 "HgN/A
4:00 PM88 °FSunny.15 mph52%29.86 "Hg10 mi
3:30 PM88 °FSunny.15 mph55%29.89 "Hg10 mi
3:00 PM88 °FPassing clouds.13 mph59%29.89 "HgN/A
2:30 PM88 °FPassing clouds.10 mph55%29.89 "HgN/A
2:00 PM88 °FPassing clouds.10 mph55%29.92 "HgN/A
1:30 PM88 °FPassing clouds.10 mph52%29.92 "HgN/A
1:00 PM88 °FPassing clouds.10 mph52%29.92 "HgN/A
12:30 PM88 °FPassing clouds.7 mph59%29.92 "HgN/A
12:00 PM86 °FPassing clouds.6 mph59%29.92 "HgN/A
11:30 AM86 °FPassing clouds.6 mph66%29.92 "HgN/A
11:00 AM84 °FPassing clouds.7 mph70%29.92 "HgN/A
10:30 AM82 °FPassing clouds.6 mph74%29.92 "HgN/A
10:00 AM82 °FPassing clouds.5 mph74%29.92 "HgN/A
9:30 AM82 °FSunny.2 mph74%29.92 "Hg10 mi
9:00 AM81 °FSunny.1 mph70%29.92 "Hg10 mi
8:30 AM79 °FSunny.1 mph74%29.92 "Hg10 mi
8:00 AM77 °FClear.2 mph79%29.92 "Hg10 mi
7:30 AM77 °FClear.No wind79%29.92 "Hg10 mi
7:00 AM77 °FClear.1 mph79%29.92 "Hg10 mi
6:30 AM77 °FClear.2 mph79%29.89 "Hg10 mi
6:00 AM77 °FClear.No wind79%29.89 "Hg10 mi
5:00 AM77 °FClear.3 mph83%29.89 "Hg10 mi
4:30 AM79 °FClear.3 mph79%29.89 "Hg10 mi
4:00 AM79 °FClear.8 mph79%29.92 "Hg10 mi
3:30 AM81 °FClear.9 mph79%29.92 "Hg10 mi
3:00 AM81 °FClear.7 mph79%29.92 "Hg10 mi
Weather by CustomWeather, © 2015

See weather overviewHow to use our weather pages